| time (UTC) | temp F | wind direction | speed MPH | gust MPH | rain 1hr in | rain 24hr in | rain mn in | humidity % | barometer mb |
| 20260505041158 | 46 | 139 | 0.0 | 0.0 | 0.00 | 0.00 | 0.00 | 96 | 1015.2 |
| 20260505040655 | 46 | 139 | 0.0 | 0.0 | 0.00 | 0.00 | 0.00 | 96 | 1015.7 |
| 20260505040152 | 46 | 139 | 0.0 | 0.0 | 0.00 | 0.00 | 0.00 | 95 | 1015.2 |
| 20260505035648 | 46 | 139 | 0.0 | 0.0 | 0.00 | 0.00 | 0.00 | 95 | 1015.7 |
| 20260505035144 | 47 | 139 | 1.0 | 1.0 | 0.00 | 0.00 | 0.00 | 94 | 1015.2 |
| 20260505034641 | 47 | 139 | 0.0 | 1.0 | 0.00 | 0.00 | 0.00 | 93 | 1015.7 |
| 20260505034139 | 48 | 139 | 1.0 | 1.0 | 0.00 | 0.00 | 0.00 | 94 | 1015.7 |
| 20260505033634 | 48 | 138 | 0.0 | 1.0 | 0.00 | 0.00 | 0.00 | 93 | 1015.7 |
| 20260505033133 | 49 | 138 | 0.0 | 0.0 | 0.00 | 0.00 | 0.00 | 91 | 1015.7 |
| 20260505032631 | 49 | 138 | 1.0 | 1.0 | 0.00 | 0.00 | 0.00 | 91 | 1015.7 |
| 20260505032127 | 49 | 138 | 0.0 | 0.0 | 0.00 | 0.00 | 0.00 | 91 | 1015.7 |
| 20260505031624 | 49 | 138 | 0.0 | 0.0 | 0.00 | 0.00 | 0.00 | 90 | 1015.7 |
| 20260505031120 | 50 | 138 | 0.0 | 1.0 | 0.00 | 0.00 | 0.00 | 88 | 1015.7 |
| 20260505030617 | 50 | 138 | 2.0 | 2.0 | 0.00 | 0.00 | 0.00 | 87 | 1015.7 |
| 20260505030113 | 50 | 138 | 0.0 | 0.0 | 0.00 | 0.00 | 0.00 | 88 | 1015.7 |
| 20260505025609 | 51 | 138 | 0.0 | 0.0 | 0.00 | 0.00 | 0.00 | 87 | 1015.7 |
| 20260505025108 | 51 | 138 | 2.0 | 2.0 | 0.00 | 0.00 | 0.00 | 86 | 1015.7 |
| 20260505024605 | 52 | 138 | 0.0 | 0.0 | 0.00 | 0.00 | 0.00 | 84 | 1015.7 |
| 20260505024102 | 53 | 138 | 1.0 | 1.0 | 0.00 | 0.00 | 0.00 | 83 | 1015.7 |
| 20260505023559 | 53 | 138 | 0.0 | 0.0 | 0.00 | 0.00 | 0.00 | 81 | 1015.7 |
| 20260505023057 | 54 | 138 | 1.0 | 1.0 | 0.00 | 0.00 | 0.00 | 80 | 1015.7 |
| 20260505022554 | 54 | 138 | 2.0 | 2.0 | 0.00 | 0.00 | 0.00 | 79 | 1015.7 |
| 20260505022051 | 55 | 138 | 0.0 | 0.0 | 0.00 | 0.00 | 0.00 | 77 | 1015.2 |
| 20260505021548 | 55 | 138 | 3.0 | 3.0 | 0.00 | 0.00 | 0.00 | 77 | 1015.2 |
| 20260505021045 | 55 | 138 | 0.0 | 0.0 | 0.00 | 0.00 | 0.00 | 77 | 1015.7 |
| 20260505020544 | 56 | 138 | 2.0 | 2.0 | 0.00 | 0.00 | 0.00 | 77 | 1015.2 |
| 20260505020042 | 57 | 138 | 1.0 | 2.0 | 0.00 | 0.00 | 0.00 | 73 | 1014.9 |
| 20260505015539 | 56 | 137 | 3.0 | 3.0 | 0.00 | 0.00 | 0.00 | 74 | 1015.2 |
| 20260505015035 | 58 | 138 | 2.0 | 2.0 | 0.00 | 0.00 | 0.00 | 73 | 1015.2 |
| 20260505014532 | 58 | 235 | 0.0 | 1.0 | 0.00 | 0.00 | 0.00 | 69 | 1015.2 |
| 20260505014029 | 58 | 162 | 1.0 | 1.0 | 0.00 | 0.00 | 0.00 | 68 | 1014.9 |
| 20260505013527 | 59 | 177 | 0.0 | 0.0 | 0.00 | 0.00 | 0.00 | 68 | 1014.9 |
| 20260505013024 | 59 | 179 | 3.0 | 3.0 | 0.00 | 0.00 | 0.00 | 67 | 1014.9 |
| 20260505012522 | 59 | 78 | 1.0 | 2.0 | 0.00 | 0.00 | 0.00 | 68 | 1014.6 |
| 20260505012019 | 59 | 26 | 0.0 | 0.0 | 0.00 | 0.00 | 0.00 | 70 | 1014.6 |
| 20260505011514 | 60 | 26 | 1.0 | 1.0 | 0.00 | 0.00 | 0.00 | 62 | 1014.6 |
| 20260505011011 | 58 | 185 | 1.0 | 1.0 | 0.00 | 0.00 | 0.00 | 67 | 1014.6 |
| 20260505010507 | 59 | 185 | 1.0 | 2.0 | 0.00 | 0.00 | 0.00 | 67 | 1014.6 |
| 20260505010003 | 60 | 185 | 2.0 | 2.0 | 0.00 | 0.00 | 0.00 | 66 | 1014.9 |
| 20260505005500 | 62 | 185 | 2.0 | 2.0 | 0.00 | 0.00 | 0.00 | 62 | 1014.6 |
| 20260505004958 | 63 | 186 | 1.0 | 1.0 | 0.00 | 0.00 | 0.00 | 60 | 1014.6 |
| 20260505004454 | 64 | 191 | 3.0 | 5.0 | 0.00 | 0.00 | 0.00 | 54 | 1014.6 |
| 20260505003951 | 65 | 224 | 1.0 | 1.0 | 0.00 | 0.00 | 0.00 | 56 | 1014.6 |
| 20260505003448 | 65 | 192 | 2.0 | 2.0 | 0.00 | 0.00 | 0.00 | 55 | 1014.6 |
| 20260505002944 | 65 | 195 | 5.0 | 7.0 | 0.00 | 0.00 | 0.00 | 55 | 1014.6 |
| 20260505002441 | 65 | 213 | 4.0 | 5.0 | 0.00 | 0.00 | 0.00 | 55 | 1014.6 |
| 20260505001939 | 65 | 206 | 3.0 | 3.0 | 0.00 | 0.00 | 0.00 | 54 | 1014.6 |
| 20260505001436 | 66 | 210 | 2.0 | 2.0 | 0.00 | 0.00 | 0.00 | 54 | 1014.6 |
| 20260505000933 | 66 | 188 | 3.0 | 3.0 | 0.00 | 0.00 | 0.00 | 53 | 1014.2 |
| 20260505000431 | 67 | 188 | 2.0 | 3.0 | 0.00 | 0.00 | 0.00 | 52 | 1014.2 |
| 20260504235928 | 67 | 214 | 2.0 | 3.0 | 0.00 | 0.00 | 0.00 | 52 | 1014.2 |
| 20260504235425 | 67 | 242 | 4.0 | 6.0 | 0.00 | 0.00 | 0.00 | 51 | 1014.2 |
| 20260504234921 | 67 | 251 | 7.0 | 8.0 | 0.00 | 0.00 | 0.00 | 50 | 1014.2 |
| 20260504234419 | 68 | 180 | 5.0 | 7.0 | 0.00 | 0.00 | 0.00 | 51 | 1014.2 |
| 20260504233915 | 68 | 262 | 4.0 | 6.0 | 0.00 | 0.00 | 0.00 | 49 | 1014.2 |
| 20260504233411 | 68 | 260 | 6.0 | 7.0 | 0.00 | 0.00 | 0.00 | 49 | 1014.2 |
| 20260504232908 | 68 | 179 | 3.0 | 5.0 | 0.00 | 0.00 | 0.00 | 49 | 1013.8 |
| 20260504232405 | 69 | 207 | 6.0 | 7.0 | 0.00 | 0.00 | 0.00 | 48 | 1014.2 |
| 20260504231902 | 69 | 249 | 1.0 | 1.0 | 0.00 | 0.00 | 0.00 | 49 | 1013.8 |
| 20260504231358 | 69 | 259 | 3.0 | 9.0 | 0.00 | 0.00 | 0.00 | 47 | 1013.8 |
| 20260504230854 | 69 | 216 | 4.0 | 5.0 | 0.00 | 0.00 | 0.00 | 46 | 1013.8 |
| 20260504230352 | 70 | 209 | 5.0 | 6.0 | 0.00 | 0.00 | 0.00 | 47 | 1013.8 |
| 20260504225851 | 70 | 140 | 6.0 | 7.0 | 0.00 | 0.00 | 0.00 | 47 | 1013.8 |
| 20260504225347 | 70 | 218 | 4.0 | 6.0 | 0.00 | 0.00 | 0.00 | 45 | 1013.8 |
| 20260504224844 | 70 | 189 | 5.0 | 6.0 | 0.00 | 0.00 | 0.00 | 44 | 1013.8 |
| 20260504224341 | 70 | 199 | 6.0 | 8.0 | 0.00 | 0.00 | 0.00 | 44 | 1013.8 |
| 20260504223838 | 70 | 247 | 3.0 | 3.0 | 0.00 | 0.00 | 0.00 | 44 | 1013.8 |
| 20260504223333 | 71 | 188 | 7.0 | 9.0 | 0.00 | 0.00 | 0.00 | 42 | 1013.8 |
| 20260504222830 | 71 | 230 | 3.0 | 5.0 | 0.00 | 0.00 | 0.00 | 44 | 1013.8 |
| 20260504222327 | 71 | 253 | 3.0 | 5.0 | 0.00 | 0.00 | 0.00 | 43 | 1013.8 |
| 20260504221826 | 71 | 180 | 3.0 | 5.0 | 0.00 | 0.00 | 0.00 | 40 | 1013.8 |
| 20260504221322 | 71 | 193 | 9.0 | 11.0 | 0.00 | 0.00 | 0.00 | 42 | 1013.8 |
| 20260504220819 | 71 | 132 | 6.0 | 8.0 | 0.00 | 0.00 | 0.00 | 42 | 1013.8 |
| 20260504220316 | 70 | 136 | 6.0 | 7.0 | 0.00 | 0.00 | 0.00 | 40 | 1014.2 |
| 20260504215813 | 69 | 170 | 5.0 | 6.0 | 0.00 | 0.00 | 0.00 | 41 | 1013.8 |
| 20260504215309 | 69 | 157 | 6.0 | 7.0 | 0.00 | 0.00 | 0.00 | 41 | 1013.8 |
| 20260504214805 | 69 | 150 | 5.0 | 7.0 | 0.00 | 0.00 | 0.00 | 41 | 1013.8 |
| 20260504214302 | 69 | 167 | 5.0 | 6.0 | 0.00 | 0.00 | 0.00 | 42 | 1013.8 |
| 20260504213759 | 69 | 172 | 5.0 | 5.0 | 0.00 | 0.00 | 0.00 | 41 | 1013.8 |
| 20260504213255 | 69 | 187 | 4.0 | 6.0 | 0.00 | 0.00 | 0.00 | 41 | 1013.8 |
| 20260504212752 | 69 | 150 | 3.0 | 3.0 | 0.00 | 0.00 | 0.00 | 41 | 1013.8 |
| 20260504212248 | 69 | 165 | 2.0 | 2.0 | 0.00 | 0.00 | 0.00 | 41 | 1014.2 |
| 20260504211746 | 69 | 168 | 4.0 | 5.0 | 0.00 | 0.00 | 0.00 | 43 | 1013.8 |
| 20260504211242 | 70 | 191 | 7.0 | 8.0 | 0.00 | 0.00 | 0.00 | 40 | 1013.8 |
| 20260504210740 | 70 | 164 | 1.0 | 2.0 | 0.00 | 0.00 | 0.00 | 44 | 1013.8 |
| 20260504210237 | 70 | 201 | 1.0 | 2.0 | 0.00 | 0.00 | 0.00 | 44 | 1014.2 |
| 20260504205733 | 70 | 179 | 1.0 | 2.0 | 0.00 | 0.00 | 0.00 | 43 | 1013.8 |
| 20260504205231 | 70 | 236 | 1.0 | 2.0 | 0.00 | 0.00 | 0.00 | 42 | 1013.8 |
| 20260504204729 | 71 | 172 | 4.0 | 8.0 | 0.00 | 0.00 | 0.00 | 42 | 1013.8 |
| 20260504204227 | 70 | 228 | 1.0 | 2.0 | 0.00 | 0.00 | 0.00 | 41 | 1014.2 |
| 20260504203727 | 71 | 178 | 4.0 | 5.0 | 0.00 | 0.00 | 0.00 | 42 | 1014.2 |
| 20260504203224 | 70 | 175 | 3.0 | 3.0 | 0.00 | 0.00 | 0.00 | 40 | 1014.2 |
| 20260504202724 | 71 | 217 | 6.0 | 8.0 | 0.00 | 0.00 | 0.00 | 39 | 1013.8 |
| 20260504202221 | 71 | 274 | 0.0 | 0.0 | 0.00 | 0.00 | 0.00 | 42 | 1013.8 |
| 20260504201718 | 71 | 247 | 2.0 | 3.0 | 0.00 | 0.00 | 0.00 | 41 | 1013.8 |
| 20260504201215 | 71 | 231 | 3.0 | 3.0 | 0.00 | 0.00 | 0.00 | 42 | 1014.2 |
| 20260504200713 | 73 | 298 | 5.0 | 6.0 | 0.00 | 0.00 | 0.00 | 37 | 1013.8 |
| 20260504200209 | 73 | 297 | 3.0 | 3.0 | 0.00 | 0.00 | 0.00 | 37 | 1014.2 |
| 20260504195705 | 75 | 230 | 4.0 | 5.0 | 0.00 | 0.00 | 0.00 | 36 | 1014.2 |
| 20260504195201 | 75 | 317 | 2.0 | 2.0 | 0.00 | 0.00 | 0.00 | 36 | 1014.2 |
| 20260504194658 | 75 | 303 | 3.0 | 3.0 | 0.00 | 0.00 | 0.00 | 36 | 1014.2 |
| 20260504194154 | 76 | 312 | 6.0 | 8.0 | 0.00 | 0.00 | 0.00 | 34 | 1014.2 |
| 20260504193651 | 75 | 348 | 0.0 | 1.0 | 0.00 | 0.00 | 0.00 | 34 | 1014.6 |
| 20260504193149 | 74 | 325 | 4.0 | 5.0 | 0.00 | 0.00 | 0.00 | 33 | 1014.6 |
| 20260504192647 | 75 | 21 | 3.0 | 3.0 | 0.00 | 0.00 | 0.00 | 35 | 1014.6 |
| 20260504192144 | 75 | 316 | 3.0 | 5.0 | 0.00 | 0.00 | 0.00 | 36 | 1014.6 |
| 20260504191643 | 73 | 1 | 5.0 | 6.0 | 0.00 | 0.00 | 0.00 | 34 | 1014.6 |
| 20260504191138 | 73 | 210 | 3.0 | 5.0 | 0.00 | 0.00 | 0.00 | 37 | 1014.9 |
| 20260504190634 | 72 | 217 | 5.0 | 6.0 | 0.00 | 0.00 | 0.00 | 39 | 1014.6 |
| 20260504190131 | 73 | 284 | 2.0 | 3.0 | 0.00 | 0.00 | 0.00 | 40 | 1014.9 |
| 20260504185628 | 73 | 334 | 2.0 | 2.0 | 0.00 | 0.00 | 0.00 | 40 | 1014.9 |
| 20260504185125 | 74 | 333 | 5.0 | 7.0 | 0.00 | 0.00 | 0.00 | 40 | 1014.9 |
| 20260504184620 | 73 | 203 | 3.0 | 5.0 | 0.00 | 0.00 | 0.00 | 39 | 1014.9 |
| 20260504184115 | 73 | 307 | 4.0 | 6.0 | 0.00 | 0.00 | 0.00 | 39 | 1014.9 |
| 20260504183613 | 73 | 24 | 5.0 | 6.0 | 0.00 | 0.00 | 0.00 | 40 | 1014.9 |
| 20260504183111 | 72 | 309 | 0.0 | 0.0 | 0.00 | 0.00 | 0.00 | 43 | 1014.9 |
| 20260504182608 | 72 | 301 | 5.0 | 7.0 | 0.00 | 0.00 | 0.00 | 42 | 1014.9 |
| 20260504182105 | 72 | 254 | 0.0 | 0.0 | 0.00 | 0.00 | 0.00 | 42 | 1015.2 |
| 20260504181602 | 71 | 171 | 1.0 | 1.0 | 0.00 | 0.00 | 0.00 | 44 | 1015.2 |
| 20260504181100 | 71 | 223 | 3.0 | 5.0 | 0.00 | 0.00 | 0.00 | 42 | 1015.2 |
| 20260504180559 | 72 | 249 | 3.0 | 3.0 | 0.00 | 0.00 | 0.00 | 44 | 1015.2 |
| 20260504180057 | 71 | 52 | 4.0 | 5.0 | 0.00 | 0.00 | 0.00 | 40 | 1015.7 |
| 20260504175554 | 70 | 284 | 5.0 | 6.0 | 0.00 | 0.00 | 0.00 | 44 | 1015.2 |
| 20260504175051 | 71 | 242 | 4.0 | 7.0 | 0.00 | 0.00 | 0.00 | 47 | 1015.2 |
| 20260504174549 | 71 | 170 | 5.0 | 7.0 | 0.00 | 0.00 | 0.00 | 43 | 1015.2 |
| 20260504174045 | 71 | 60 | 2.0 | 2.0 | 0.00 | 0.00 | 0.00 | 39 | 1015.7 |
| 20260504173542 | 71 | 227 | 6.0 | 7.0 | 0.00 | 0.00 | 0.00 | 42 | 1015.7 |
| 20260504173040 | 72 | 306 | 3.0 | 5.0 | 0.00 | 0.00 | 0.00 | 41 | 1015.7 |
| 20260504172536 | 70 | 94 | 3.0 | 3.0 | 0.00 | 0.00 | 0.00 | 41 | 1015.7 |
| 20260504172032 | 68 | 98 | 3.0 | 3.0 | 0.00 | 0.00 | 0.00 | 44 | 1015.7 |
| 20260504171529 | 69 | 173 | 6.0 | 7.0 | 0.00 | 0.00 | 0.00 | 43 | 1016.0 |
| 20260504171026 | 69 | 318 | 1.0 | 2.0 | 0.00 | 0.00 | 0.00 | 42 | 1016.0 |
| 20260504170522 | 69 | 19 | 3.0 | 5.0 | 0.00 | 0.00 | 0.00 | 44 | 1016.0 |
| 20260504160443 | 68 | 35 | 5.0 | 7.0 | 0.00 | 0.00 | 0.00 | 44 | 1016.7 |
| 20260504150906 | 66 | 70 | 0.0 | 1.0 | 0.00 | 0.00 | 0.00 | 48 | 1017.8 |
| 20260504150403 | 65 | 43 | 3.0 | 5.0 | 0.00 | 0.00 | 0.00 | 49 | 1017.8 |
| 20260504141333 | 61 | 167 | 0.0 | 0.0 | 0.00 | 0.00 | 0.00 | 57 | 1017.8 |
| 20260504140829 | 60 | 167 | 2.0 | 2.0 | 0.00 | 0.00 | 0.00 | 63 | 1017.8 |
| 20260504140325 | 59 | 166 | 0.0 | 1.0 | 0.00 | 0.00 | 0.00 | 66 | 1017.8 |
| 20260504130754 | 53 | 153 | 0.0 | 0.0 | 0.00 | 0.00 | 0.00 | 77 | 1017.8 |
| 20260504130250 | 52 | 153 | 0.0 | 0.0 | 0.00 | 0.00 | 0.00 | 78 | 1017.8 |
| 20260504120214 | 39 | 59 | 0.0 | 0.0 | 0.00 | 0.00 | 0.00 | 99 | 1017.5 |
| 20260504110641 | 32 | 54 | 0.0 | 0.0 | 0.00 | 0.00 | 0.00 | 99 | 1016.7 |
| 20260504110137 | 32 | 54 | 0.0 | 0.0 | 0.00 | 0.00 | 0.00 | 99 | 1017.1 |
| 20260504100603 | 32 | 305 | 0.0 | 0.0 | 0.00 | 0.00 | 0.00 | 99 | 1017.5 |
| 20260504081956 | 33 | 305 | 0.0 | 0.0 | 0.00 | 0.00 | 0.00 | 99 | 1017.1 |
| 20260504081454 | 34 | 305 | 0.0 | 0.0 | 0.00 | 0.00 | 0.00 | 99 | 1016.7 |
| 20260504080949 | 34 | 305 | 0.0 | 0.0 | 0.00 | 0.00 | 0.00 | 99 | 1016.7 |
| 20260504080446 | 33 | 305 | 0.0 | 0.0 | 0.00 | 0.00 | 0.00 | 99 | 1016.7 |
| 20260504050259 | 37 | 305 | 0.0 | 0.0 | 0.00 | 0.00 | 0.00 | 99 | 1017.5 |
| 20260504045756 | 37 | 305 | 0.0 | 0.0 | 0.00 | 0.00 | 0.00 | 99 | 1017.1 |
| 20260504045251 | 37 | 305 | 0.0 | 0.0 | 0.00 | 0.00 | 0.00 | 99 | 1017.5 |
| 20260504044749 | 38 | 305 | 0.0 | 0.0 | 0.00 | 0.00 | 0.00 | 99 | 1017.1 |
| 20260504044246 | 38 | 305 | 0.0 | 0.0 | 0.00 | 0.00 | 0.00 | 99 | 1016.7 |
| 20260504043743 | 38 | 305 | 0.0 | 0.0 | 0.00 | 0.00 | 0.00 | 99 | 1016.7 |
| 20260504043240 | 38 | 305 | 0.0 | 0.0 | 0.00 | 0.00 | 0.00 | 99 | 1016.7 |
| 20260504042738 | 39 | 305 | 0.0 | 0.0 | 0.00 | 0.00 | 0.00 | 99 | 1016.7 |
| 20260504042234 | 38 | 305 | 0.0 | 0.0 | 0.00 | 0.00 | 0.00 | 99 | 1016.7 |
| 20260504041730 | 38 | 305 | 0.0 | 0.0 | 0.00 | 0.00 | 0.00 | 99 | 1016.7 |